Погода в Тормосине

Россия / Волгоградская область     48°10′13″N   42°40′45″E
темп.,
°C
ветер,
м/с
пор.,
м/с
влажн.,
%
обл.,
%
осадки,
мм/ч
давл.,
гПа
погр.,
м
16 мая, вс
вс1600:00+18юв41152100 0.0 1013160
03:00+16юв4853100 0.0 1013111
06:00+16юв49619 0.0 1013186
09:00+22юв58458 0.0 1013325
12:00+27юв693020 0.0 10121044
15:00+29юв5102738 0.0 10111791
18:00+26в464183 0.0 100987
21:00+22юв6174482 0.0 1010306
17 мая, пн
пн1700:00+19вюв5154811 0.0 1010259
03:00+18в6155014 0.0 1009251
06:00+18в71650100 0.0 1009267
09:00+23вюв81642100 0.0 1010652
12:00+28юв81329100 0.0 10091753
15:00+28юв61133100 0.0 10081244
18:00+25вюв512417 0.0 1008242
21:00+21вюв5144111 0.0 1009193
18 мая, вт
вт1800:00+18вюв5144399 0.0 1008209
03:00+17всв3346100 0.0 100827
06:00+17всв345071 0.0 100859
09:00+22вюв3540100 0.0 1007312
12:00+25юв4534100 0.0 1007823
15:00+25юз564191 0.0 1007650
18:00+23зюз5762100 0.0 1008546
21:00+19з497699 0.0 1009283
19 мая, ср
ср1900:00+17з488261 0.0 1009180
03:00+16з368297 0.3 1010134
06:00+16зсз3781100 0.4 1010221
09:00+20з356247 0.4 1011727
12:00+21зюз786091 0.7 10111333
15:00+21юз91055100 1.1 10121341
18:00+17ююз5872100 0.2 1013424
21:00+15юз510809 0.4 1013295
20 мая, чт
чт2000:00+14юз6128689 0.0 1014454
03:00+12юз6138995 0.0 1015501
06:00+13юз612855 0.0 1016508
09:00+18юз79622 0.0 10161096
12:00+20зюз7954100 0.2 10171769
15:00+21зюз5751100 0.2 10171666
18:00+21зюз355599 0.0 1017274
21:00+16ююз22680 0.0 101812